Ketchikan, AK

4:27 AM AKDT on August 15, 2018 (GMT -0800)
Ketchikan International

Weather History for PAKT - May, 2018

Change the Weather History Date:

Wednesday, May 30, 2018

  Actual Average Record
Temperature  
Mean Temperature 48 °F -  
Max Temperature 57 °F 59 °F 74 °F (1983)
Min Temperature 39 °F 43 °F 38 °F (1970)
Degree Days  
Heating Degree Days 17    
Moisture  
Dew Point 40 °F    
Average Humidity 74    
Maximum Humidity 93    
Minimum Humidity 44    
Precipitation  
Precipitation 0.00 in - - ()
Sea Level Pressure  
Sea Level Pressure 30.04 in    
Wind  
Wind Speed 5 mph (SE)    
Max Wind Speed 13 mph    
Max Gust Speed -    
Visibility 10 miles    
Events Rain    
Averages and records for this station are not official NWS values.
T = Trace of Precipitation, MM = Missing Value Source: NWS Daily Summary

Daily Weather History Graph

Daily Weather History Graph

Search for Another Location

Airport or City:

Astronomy

May. 30, 2018 Rise Set
Actual Time 4:15 AM AKDT 9:14 PM AKDT
Civil Twilight 3:20 AM AKDT 10:09 PM AKDT
Nautical Twilight 1:38 AM AKDT 11:54 PM AKDT
Astronomical Twilight Sun does not set Sun does not set
Moon 10:15 PM AKDT (5/30) 5:29 AM AKDT (5/30)
Length of Visible Light 18h 49m
Length of Day
16h 59m
Full, 99% of the Moon is Illuminated
May 30
Full
Jun 6
Last Quarter
Jun 13
New
Jun 20
First Quarter
Jun 27
Full

Hourly Weather History & Observations

Time (AKDT) Temp. Windchill Dew Point Humidity Pressure Visibility Wind Dir Wind Speed Gust Speed Precip Events Conditions
12:32 AM 46.0 °F 43.9 °F 42.1 °F 86% 30.09 in 10.0 mi South 4.6 mph - N/A   Overcast
12:42 AM 46.0 °F 43.9 °F 42.1 °F 86% 30.09 in 10.0 mi South 4.6 mph - N/A   Mostly Cloudy
12:53 AM 45.0 °F 42.6 °F 42.1 °F 90% 30.09 in 10.0 mi South 4.6 mph - N/A   Scattered Clouds
1:33 AM 45.0 °F 42.6 °F 42.1 °F 90% 30.08 in 10.0 mi SSE 4.6 mph - N/A   Overcast
1:53 AM 46.0 °F 44.8 °F 42.1 °F 86% 30.09 in 10.0 mi South 3.5 mph - N/A   Overcast
2:04 AM 45.0 °F 41.8 °F 42.1 °F 90% 30.08 in 10.0 mi SSE 5.8 mph - N/A   Mostly Cloudy
2:53 AM 43.0 °F 40.3 °F 39.9 °F 89% 30.09 in 10.0 mi South 4.6 mph - N/A   Clear
3:53 AM 44.1 °F 42.5 °F 41.0 °F 89% 30.08 in 10.0 mi SE 3.5 mph - N/A   Overcast
4:53 AM 44.1 °F - 42.1 °F 93% 30.07 in 10.0 mi Calm Calm - N/A   Overcast
5:53 AM 46.0 °F - 42.1 °F 86% 30.06 in 10.0 mi Calm Calm - N/A   Overcast
6:53 AM 46.9 °F - 42.1 °F 83% 30.06 in 7.0 mi ESE 3.5 mph - N/A   Overcast
7:00 AM 46.9 °F - 43.0 °F 86% 30.06 in 7.0 mi East 4.6 mph - 0.00 in Rain Light Rain
7:07 AM 46.9 °F - 42.1 °F 83% 30.06 in 9.0 mi ESE 4.6 mph - 0.00 in   Overcast
7:53 AM 46.4 °F 41.9 °F 42.8 °F 87% 30.06 in 8.0 mi SSE 9.2 mph - N/A Rain Light Rain
8:53 AM 50.0 °F - 41.0 °F 71% 30.05 in 10.0 mi ESE 3.5 mph - N/A   Overcast
9:53 AM 51.8 °F - 39.2 °F 62% 30.05 in 10.0 mi SE 6.9 mph - N/A   Overcast
10:53 AM 51.8 °F - 37.4 °F 58% 30.04 in 10.0 mi ESE 10.4 mph - N/A   Overcast
11:53 AM 53.6 °F - 39.2 °F 58% 30.04 in 10.0 mi ESE 10.4 mph - N/A   Overcast
12:53 PM 55.4 °F - 39.2 °F 54% 30.04 in 10.0 mi ESE 10.4 mph - N/A   Mostly Cloudy
1:53 PM 55.4 °F - 37.4 °F 51% 30.03 in 10.0 mi SE 9.2 mph - N/A   Scattered Clouds
2:53 PM 57.2 °F - 37.4 °F 48% 30.01 in 10.0 mi ESE 11.5 mph - N/A   Scattered Clouds
3:53 PM 57.2 °F - 35.6 °F 44% 30.00 in 10.0 mi ESE 12.7 mph - N/A   Scattered Clouds
4:53 PM 55.4 °F - 37.4 °F 51% 29.98 in 10.0 mi SE 10.4 mph - N/A   Clear
5:53 PM 53.6 °F - 35.6 °F 51% 29.97 in 10.0 mi SE 6.9 mph - N/A   Clear
6:53 PM 53.6 °F - 37.4 °F 54% 29.97 in 10.0 mi SE 6.9 mph - N/A   Clear
7:53 PM 51.8 °F - 37.4 °F 58% 29.97 in 10.0 mi SE 4.6 mph - N/A   Clear
8:53 PM 46.4 °F 43.5 °F 39.2 °F 76% 29.97 in 10.0 mi South 5.8 mph - N/A   Clear
9:53 PM 44.1 °F 42.5 °F 37.9 °F 79% 29.97 in 10.0 mi SSE 3.5 mph - N/A   Clear
10:53 PM 39.9 °F - 36.0 °F 86% 29.97 in 10.0 mi Calm Calm - N/A   Clear
11:53 PM 39.0 °F - 35.1 °F 86% 29.96 in 10.0 mi Calm Calm - N/A   Clear